Regional Weather Roundup
Issued by NWS

Home | Current Version | Previous Version | Text Only | Print | Product List | Glossary On
Versions: 1 2 3 4 5 6 7 8 9 10 11 12 13 14 15 16 17 18 19 20 21 22 23 24 25 26 27
000
ASUS44 KJAN 250510
RWRMS

MISSISSIPPI HOURLY WEATHER ROUNDUP
NATIONAL WEATHER SERVICE JACKSON MS
1100 PM CST FRI FEB 24 2017

NOTE: "FAIR: INDICATES FEW OR NO CLOUDS BELOW 12,000 FEET WITH NO
SIGNIFICANT WEATHER AND/OR OBSTRUCTIONS TO VISIBILITY.

MSZ001>002-007>008-010>013-018>021-025>028-034>036-250600-
NORTHWEST MISSISSIPPI

CITY           SKY/WX    TMP DP  RH WIND       PRES   REMARKS
BATESVILLE     FAIR      58  44  61 NW9G16    29.85R
CLEVELAND      FAIR      55  36  48 NW20G26   29.89R
GREENWOOD      MOCLDY    60  38  43 NW12G18   29.85R
GREENVILLE     CLEAR     56  34  43 NW20      29.88R
OXFORD         FAIR      57  41  54 NW13G23   29.84R
TUNICA         CLEAR     54  37  54 NW16      29.87R
WINONA         CLOUDY    58  47  68 NW6       29.84R
$$

MSZ003>006-009-014>017-022>024-029>033-037>039-250600-
NORTHEAST MISSISSIPPI

CITY           SKY/WX    TMP DP  RH WIND       PRES   REMARKS
COLUMBUS AFB   CLOUDY    68  59  73 NW14G23   29.75R
CORINTH        CLOUDY    61  36  39 NW16G22   29.77R
GOLDN TRIANGLE MOCLDY    66  54  63 W6        29.72R
STARKVILLE     FAIR      66  55  68 W7        29.79R
TUPELO         CLOUDY    64  55  72 W9G18     29.76R
$$

MSZ040-058-250600-
CENTRAL MISSISSIPPI

CITY           SKY/WX    TMP DP  RH WIND       PRES   REMARKS
JACKSON INTL   LGT RAIN  65  58  78 NW7       29.83R
JACKSON HAWKNS LGT RAIN  63  58  83 NW8       29.84R
MADISON        MOCLDY   N/A N/A N/A NW7G16    29.83R
MERIDIAN KEY   PTCLDY    67  62  84 S9        29.79R
MERIDIAN NAS   NOT AVBL
VICKSBURG VKS  CLOUDY    64  52  63 NW13G18   29.84R
$$

MSZ059>079-250600-
SOUTH MISSISSIPPI

CITY           SKY/WX    TMP DP  RH WIND       PRES   REMARKS
BROOKHAVEN     FAIR     N/A N/A N/A SW6       29.83R
HATTIESBURG    CLEAR     65  60  84 SW8       29.82R
LAUREL         FAIR      65  62  92 SW6       29.81R
MCCOMB         CLEAR     64  57  78 SW5       29.83R
NATCHEZ        CLOUDY    64  52  63 NW13      29.88R
PINE BELT      CLEAR     64  57  77 SW6       29.83R
$$

MSZ080>082-250600-
COASTAL MISSISSIPPI

CITY           SKY/WX    TMP DP  RH WIND       PRES   REMARKS
BILOXI         PTCLDY    67  65  92 SW7       29.83R
PASCAGOULA     PTCLDY    67  63  87 S3        29.83S
GULFPORT       CLEAR     68  65  90 SW5       29.83R
$$

LAZ007>009-015>016-023>026-250600-
NORTHEAST LOUISIANA

CITY           SKY/WX    TMP DP  RH WIND       PRES   REMARKS
BASTROP        FAIR      58  35  41 NW14G25   29.92R
TALLULAH/VBURG CLEAR     63  49  60 NW13G22   29.87R
VIDALIA        CLOUDY    65  49  56 NW15G22   29.88R
$$




USA.gov is the U.S. government's official web portal to all federal, state and local government web resources and services.